Regional Weather Roundup
Issued by NWS

Home | Current Version | Previous Version | Text Only | Print | Product List | Glossary On
Versions: 1 2 3 4 5 6 7 8 9 10 11 12 13 14 15 16 17 18 19 20 21 22 23 24 25 26 27 28 29 30 31 32 33 34 35 36 37 38 39 40 41 42 43 44 45 46 47 48 49 50
000
ASUS43 KOAX 271310
RWRNE

WEATHER ROUNDUP FOR NEBRASKA
NATIONAL WEATHER SERVICE OMAHA NE
700 AM CST MON FEB 27 2017

NOTES: SATELLITE DATA IS BEING USED TO AUGMENT CLOUD COVER ABOVE
       12000 FEET.
       "FAIR" INDICATES FEW OR NO CLOUDS BELOW 12,000 FEET WITH NO
       SIGNIFICANT WEATHER AND/OR OBSTRUCTIONS TO VISIBILITY.

  * THESE STATIONS DO NOT REPORT WEATHER SUCH AS RAIN...SNOW OR FOG.

NEZ001>004-019>022-054>056-271400-
NEBRASKA PANHANDLE

CITY           SKY/WX    TMP DP  RH WIND       PRES   REMARKS
SCOTTSBLUFF    CLOUDY    13   5  70 E7        29.69F WCI   3
ALLIANCE       CLOUDY    12   6  77 S8        29.69F WCI   0
CHADRON        CLOUDY    24  13  62 SW8       29.66F WCI  15
KIMBALL        CLOUDY    11   8  88 W5        29.67F WCI   3
SIDNEY         CLOUDY    14   8  77 SW5       29.71F WCI   6
$$

NEZ057>060-069>072-079>082-271400-
SOUTHWEST NEBRASKA

CITY           SKY/WX    TMP DP  RH WIND       PRES   REMARKS
NORTH PLATTE   CLOUDY    14   9  80 SE5       29.85F WCI   6
IMPERIAL       CLOUDY    19  10  68 CALM      29.81F
LEXINGTON      CLEAR     17  12  83 N3        29.88R
MCCOOK         CLOUDY    13   8  81 CALM      29.86S
OGALLALA       CLOUDY    18  11  75 NE3       29.79F
$$

NEZ005>010-023>029-035>040-094-271400-
NORTH CENTRAL NEBRASKA

CITY           SKY/WX    TMP DP  RH WIND       PRES   REMARKS
VALENTINE      CLOUDY    16   6  65 SW15      29.76F WCI   1
AINSWORTH      CLEAR     25  13  62 S16       29.78F WCI  12
BROKEN BOW     CLEAR     15   9  76 SE3       29.86F
O`NEILL        CLEAR     17  10  77 S7        29.86F WCI   7
ORD            CLEAR     14   9  80 CALM      29.88F
THEDFORD       CLOUDY    26  13  58 S16G22    29.80F WCI  13
$$

NEZ041-046>049-061>064-073>077-083>087-271400-
SOUTH CENTRAL NEBRASKA

CITY           SKY/WX    TMP DP  RH WIND       PRES   REMARKS
GRAND ISLAND   CLEAR     24  18  77 S8        29.92S WCI  15
AURORA         CLEAR     26  17  68 S5        29.92S WCI  20
HASTINGS       CLEAR     27  16  63 S7        29.92R WCI  19
HEBRON         CLEAR     21  17  86 CALM      29.95R
HOLDREGE       CLEAR     22  11  63 S5        29.88S WCI  15
KEARNEY *      CLEAR     21  12  68 S5        29.89F WCI  15
YORK           CLEAR     25  19  80 CALM      29.94R
$$

NEZ011>018-030>034-042>045-271400-
NORTHEAST NEBRASKA

CITY           SKY/WX    TMP DP  RH WIND       PRES   REMARKS
NORFOLK        CLEAR     18  16  92 CALM      29.92R
ALBION         CLEAR     16  11  83 CALM      29.92S
BLAIR          CLEAR     28  22  78 SE6       29.95F WCI  21
FREMONT        CLEAR     24  21  89 CALM      29.96S
TEKAMAH        CLEAR     19  15  84 S5        29.97S WCI  12
WAYNE          CLOUDY    16  14  92 S3        29.93R
$$

NEZ050>053-065>068-078-088>093-271400-
SOUTHEAST NEBRASKA

CITY           SKY/WX    TMP DP  RH WIND       PRES   REMARKS
LINCOLN        CLEAR     16  13  88 N5        29.97S WCI   9
OMAHA EPPLEY   CLEAR     24  18  77 SE5       29.98S WCI  18
BEATRICE       CLEAR     25  19  77 SE3       29.95S
FALLS CITY     CLEAR     23  22  96 SE7       29.99S FOG     WCI  15
NEBRASKA CITY  CLEAR     25  20  82 S8        29.98R WCI  16
PLATTSMOUTH    CLEAR     27  19  70 SE7       29.96F WCI  20
$$

NEZ044-045-051>053-067-271400-
OMAHA AREA

CITY           SKY/WX    TMP DP  RH WIND       PRES   REMARKS
OMAHA EPPLEY   CLEAR     24  18  77 SE5       29.98S WCI  18
BLAIR          CLEAR     28  22  78 SE6       29.95F WCI  21
FREMONT        CLEAR     24  21  89 CALM      29.96S
MILLARD        CLEAR     24  22  92 CALM      29.97F
OFFUTT AFB     CLEAR     18  15  89 CALM      29.97F
PLATTSMOUTH    CLEAR     27  19  70 SE7       29.96F WCI  20
WAHOO          FAIR      22  20  91 CALM      29.96S
$$



USA.gov is the U.S. government's official web portal to all federal, state and local government web resources and services.